Time,TemperatureF,DewpointF,PressureIn,WindDirection,WindDirectionDegrees,WindSpeedMPH,WindSpeedGustMPH,Humidity,HourlyPrecipIn,Conditions,Clouds,dailyrainin,SolarRadiationWatts/m^2,SoftwareType,DateUTC
2013-04-26 00:21:00,39.0,12.0,-100.00,WNW,284,10.0,13.0,33,0.00,,,0.00,0.000000,,2013-04-26 06:21:00,
2013-04-26 00:32:00,39.0,12.0,-100.00,WNW,284,10.0,13.0,33,0.00,,,0.00,0.000000,,2013-04-26 06:32:00,
2013-04-26 00:42:00,39.0,12.0,-100.00,WNW,284,10.0,13.0,33,0.00,,,0.00,0.000000,,2013-04-26 06:42:00,
2013-04-26 00:52:00,39.0,12.0,-100.00,WNW,284,10.0,13.0,33,0.00,,,0.00,0.000000,,2013-04-26 06:52:00,
2013-04-26 01:22:00,36.0,13.0,-100.00,NNW,333,7.0,13.0,39,0.00,,,0.00,0.000000,,2013-04-26 07:22:00,
2013-04-26 01:31:00,36.0,13.0,-100.00,NNW,333,7.0,13.0,39,0.00,,,0.00,0.000000,,2013-04-26 07:31:00,
2013-04-26 01:42:00,36.0,13.0,-100.00,NNW,333,7.0,13.0,39,0.00,,,0.00,0.000000,,2013-04-26 07:42:00,
2013-04-26 01:52:00,36.0,13.0,-100.00,NNW,333,7.0,13.0,39,0.00,,,0.00,0.000000,,2013-04-26 07:52:00,
2013-04-26 02:21:00,37.0,11.0,-100.00,WNW,299,8.0,12.0,33,0.00,,,0.00,0.000000,,2013-04-26 08:21:00,
2013-04-26 02:32:00,37.0,11.0,-100.00,WNW,299,8.0,12.0,33,0.00,,,0.00,0.000000,,2013-04-26 08:32:00,
2013-04-26 02:42:00,37.0,11.0,-100.00,WNW,299,8.0,12.0,33,0.00,,,0.00,0.000000,,2013-04-26 08:42:00,
2013-04-26 02:52:00,37.0,11.0,-100.00,WNW,299,8.0,12.0,33,0.00,,,0.00,0.000000,,2013-04-26 08:52:00,
2013-04-26 03:21:00,36.0,10.0,-100.00,NW,314,6.0,11.0,34,0.00,,,0.00,0.000000,,2013-04-26 09:21:00,
2013-04-26 03:33:00,36.0,10.0,-100.00,NW,314,6.0,11.0,34,0.00,,,0.00,0.000000,,2013-04-26 09:33:00,
2013-04-26 03:42:00,36.0,10.0,-100.00,NW,314,6.0,11.0,34,0.00,,,0.00,0.000000,,2013-04-26 09:42:00,
2013-04-26 03:53:00,36.0,10.0,-100.00,NW,314,6.0,11.0,34,0.00,,,0.00,0.000000,,2013-04-26 09:53:00,
2013-04-26 04:23:00,30.0,12.0,-100.00,WNW,284,3.0,6.0,47,0.00,,,0.00,0.000000,,2013-04-26 10:23:00,
2013-04-26 04:33:00,30.0,12.0,-100.00,WNW,284,3.0,6.0,47,0.00,,,0.00,0.000000,,2013-04-26 10:33:00,
2013-04-26 04:42:00,30.0,12.0,-100.00,WNW,284,3.0,6.0,47,0.00,,,0.00,0.000000,,2013-04-26 10:42:00,
2013-04-26 04:52:00,30.0,12.0,-100.00,WNW,284,3.0,6.0,47,0.00,,,0.00,0.000000,,2013-04-26 10:52:00,
2013-04-26 05:22:00,32.0,9.0,-100.00,NW,307,5.0,7.0,38,0.00,,,0.00,0.000000,,2013-04-26 11:22:00,
2013-04-26 05:32:00,32.0,9.0,-100.00,NW,307,5.0,7.0,38,0.00,,,0.00,0.000000,,2013-04-26 11:32:00,
2013-04-26 05:42:00,32.0,9.0,-100.00,NW,307,5.0,7.0,38,0.00,,,0.00,0.000000,,2013-04-26 11:42:00,
2013-04-26 05:52:00,32.0,9.0,-100.00,NW,307,5.0,7.0,38,0.00,,,0.00,0.000000,,2013-04-26 11:52:00,
2013-04-26 06:21:00,32.0,6.0,-100.00,NW,326,4.0,8.0,33,0.00,,,0.00,0.000000,,2013-04-26 12:21:00,
2013-04-26 06:32:00,32.0,6.0,-100.00,NW,326,4.0,8.0,33,0.00,,,0.00,0.000000,,2013-04-26 12:32:00,
2013-04-26 06:42:00,32.0,6.0,-100.00,NW,326,4.0,8.0,33,0.00,,,0.00,0.000000,,2013-04-26 12:42:00,
2013-04-26 06:52:00,32.0,6.0,-100.00,NW,326,4.0,8.0,33,0.00,,,0.00,0.000000,,2013-04-26 12:52:00,
2013-04-26 07:21:00,35.0,5.0,-100.00,NW,308,4.0,8.0,28,0.00,,,0.00,12.000000,,2013-04-26 13:21:00,
2013-04-26 07:32:00,35.0,5.0,-100.00,NW,308,4.0,8.0,28,0.00,,,0.00,12.000000,,2013-04-26 13:32:00,
2013-04-26 07:42:00,35.0,5.0,-100.00,NW,308,4.0,8.0,28,0.00,,,0.00,12.000000,,2013-04-26 13:42:00,
2013-04-26 07:52:00,35.0,5.0,-100.00,NW,308,4.0,8.0,28,0.00,,,0.00,12.000000,,2013-04-26 13:52:00,
2013-04-26 08:21:00,41.0,12.0,-100.00,ENE,72,3.0,8.0,30,0.00,,,0.00,207.000000,,2013-04-26 14:21:00,
2013-04-26 08:32:00,41.0,12.0,-100.00,ENE,72,3.0,8.0,30,0.00,,,0.00,207.000000,,2013-04-26 14:32:00,
2013-04-26 08:42:00,41.0,12.0,-100.00,ENE,72,3.0,8.0,30,0.00,,,0.00,207.000000,,2013-04-26 14:42:00,
2013-04-26 08:51:00,41.0,12.0,-100.00,ENE,72,3.0,8.0,30,0.00,,,0.00,207.000000,,2013-04-26 14:51:00,
2013-04-26 09:21:00,44.0,10.0,-100.00,NE,36,5.0,9.0,24,0.00,,,0.00,424.000000,,2013-04-26 15:21:00,
2013-04-26 09:33:00,44.0,10.0,-100.00,NE,36,5.0,9.0,24,0.00,,,0.00,424.000000,,2013-04-26 15:33:00,
2013-04-26 09:43:00,44.0,10.0,-100.00,NE,36,5.0,9.0,24,0.00,,,0.00,424.000000,,2013-04-26 15:43:00,
2013-04-26 09:53:00,44.0,10.0,-100.00,NE,36,5.0,9.0,24,0.00,,,0.00,424.000000,,2013-04-26 15:53:00,
2013-04-26 10:23:00,47.0,9.0,-100.00,NE,46,6.0,15.0,21,0.00,,,0.00,642.000000,,2013-04-26 16:23:00,
2013-04-26 10:33:00,47.0,9.0,-100.00,NE,46,6.0,15.0,21,0.00,,,0.00,642.000000,,2013-04-26 16:33:00,
2013-04-26 10:42:00,47.0,9.0,-100.00,NE,46,6.0,15.0,21,0.00,,,0.00,642.000000,,2013-04-26 16:42:00,
2013-04-26 10:52:00,47.0,9.0,-100.00,NE,46,6.0,15.0,21,0.00,,,0.00,642.000000,,2013-04-26 16:52:00,
2013-04-26 11:22:00,48.0,8.0,-100.00,NE,50,5.0,13.0,19,0.00,,,0.00,844.000000,,2013-04-26 17:22:00,
2013-04-26 11:32:00,48.0,8.0,-100.00,NE,50,5.0,13.0,19,0.00,,,0.00,844.000000,,2013-04-26 17:32:00,
2013-04-26 11:42:00,48.0,8.0,-100.00,NE,50,5.0,13.0,19,0.00,,,0.00,844.000000,,2013-04-26 17:42:00,
2013-04-26 11:51:00,48.0,8.0,-100.00,NE,50,5.0,13.0,19,0.00,,,0.00,844.000000,,2013-04-26 17:51:00,
2013-04-26 12:22:00,50.0,11.0,-100.00,NNE,21,6.0,14.0,20,0.00,,,0.00,952.000000,,2013-04-26 18:22:00,
2013-04-26 12:33:00,50.0,11.0,-100.00,NNE,21,6.0,14.0,20,0.00,,,0.00,952.000000,,2013-04-26 18:33:00,
2013-04-26 12:42:00,50.0,11.0,-100.00,NNE,21,6.0,14.0,20,0.00,,,0.00,952.000000,,2013-04-26 18:42:00,
2013-04-26 12:52:00,50.0,11.0,-100.00,NNE,21,6.0,14.0,20,0.00,,,0.00,952.000000,,2013-04-26 18:52:00,
2013-04-26 13:22:00,52.0,11.0,-100.00,NE,40,5.0,15.0,19,0.00,,,0.00,1028.000000,,2013-04-26 19:22:00,
2013-04-26 13:32:00,52.0,11.0,-100.00,NE,40,5.0,15.0,19,0.00,,,0.00,1028.000000,,2013-04-26 19:32:00,
2013-04-26 13:41:00,52.0,11.0,-100.00,NE,40,5.0,15.0,19,0.00,,,0.00,1028.000000,,2013-04-26 19:41:00,
2013-04-26 13:52:00,52.0,11.0,-100.00,NE,40,5.0,15.0,19,0.00,,,0.00,1028.000000,,2013-04-26 19:52:00,
2013-04-26 14:21:00,50.0,6.0,-100.00,NE,55,6.0,13.0,16,0.00,,,0.00,859.000000,,2013-04-26 20:21:00,
2013-04-26 14:32:00,50.0,6.0,-100.00,NE,55,6.0,13.0,16,0.00,,,0.00,859.000000,,2013-04-26 20:32:00,
2013-04-26 14:42:00,50.0,6.0,-100.00,NE,55,6.0,13.0,16,0.00,,,0.00,859.000000,,2013-04-26 20:42:00,
2013-04-26 14:52:00,50.0,6.0,-100.00,NE,55,6.0,13.0,16,0.00,,,0.00,859.000000,,2013-04-26 20:52:00,
2013-04-26 15:22:00,52.0,3.0,-100.00,North,353,7.0,16.0,13,0.00,,,0.00,887.000000,,2013-04-26 21:22:00,
2013-04-26 15:33:00,52.0,3.0,-100.00,North,353,7.0,16.0,13,0.00,,,0.00,887.000000,,2013-04-26 21:33:00,
2013-04-26 15:42:00,52.0,3.0,-100.00,North,353,7.0,16.0,13,0.00,,,0.00,887.000000,,2013-04-26 21:42:00,
2013-04-26 15:52:00,52.0,3.0,-100.00,North,353,7.0,16.0,13,0.00,,,0.00,887.000000,,2013-04-26 21:52:00,
2013-04-26 16:23:00,50.0,7.0,-100.00,NNW,347,6.0,13.0,17,0.00,,,0.00,821.000000,,2013-04-26 22:23:00,
2013-04-26 16:33:00,50.0,7.0,-100.00,NNW,347,6.0,13.0,17,0.00,,,0.00,821.000000,,2013-04-26 22:33:00,
2013-04-26 16:42:00,50.0,7.0,-100.00,NNW,347,6.0,13.0,17,0.00,,,0.00,821.000000,,2013-04-26 22:42:00,
2013-04-26 16:52:00,50.0,7.0,-100.00,NNW,347,6.0,13.0,17,0.00,,,0.00,821.000000,,2013-04-26 22:52:00,
2013-04-26 17:21:00,52.0,7.0,-100.00,WNW,301,8.0,16.0,16,0.00,,,0.00,692.000000,,2013-04-26 23:21:00,
2013-04-26 17:32:00,52.0,7.0,-100.00,WNW,301,8.0,16.0,16,0.00,,,0.00,692.000000,,2013-04-26 23:32:00,
2013-04-26 17:42:00,52.0,7.0,-100.00,WNW,301,8.0,16.0,16,0.00,,,0.00,692.000000,,2013-04-26 23:42:00,
2013-04-26 17:52:00,52.0,7.0,-100.00,WNW,301,8.0,16.0,16,0.00,,,0.00,692.000000,,2013-04-26 23:52:00,
2013-04-26 18:21:00,48.0,8.0,-100.00,NW,314,6.0,13.0,19,0.00,,,0.00,273.000000,,2013-04-27 00:21:00,
2013-04-26 18:32:00,48.0,8.0,-100.00,NW,314,6.0,13.0,19,0.00,,,0.00,273.000000,,2013-04-27 00:32:00,
2013-04-26 18:42:00,48.0,8.0,-100.00,NW,314,6.0,13.0,19,0.00,,,0.00,273.000000,,2013-04-27 00:42:00,
2013-04-26 18:51:00,48.0,8.0,-100.00,NW,314,6.0,13.0,19,0.00,,,0.00,273.000000,,2013-04-27 00:51:00,
2013-04-26 19:21:00,46.0,11.0,-100.00,West,267,7.0,12.0,24,0.00,,,0.00,91.000000,,2013-04-27 01:21:00,
2013-04-26 19:32:00,46.0,11.0,-100.00,West,267,7.0,12.0,24,0.00,,,0.00,91.000000,,2013-04-27 01:32:00,
2013-04-26 19:42:00,46.0,11.0,-100.00,West,267,7.0,12.0,24,0.00,,,0.00,91.000000,,2013-04-27 01:42:00,
2013-04-26 19:52:00,46.0,11.0,-100.00,West,267,7.0,12.0,24,0.00,,,0.00,91.000000,,2013-04-27 01:52:00,
2013-04-26 20:22:00,42.0,19.0,-100.00,SSE,150,9.0,17.0,39,0.00,,,0.00,43.000000,,2013-04-27 02:22:00,
2013-04-26 20:32:00,42.0,19.0,-100.00,SSE,150,9.0,17.0,39,0.00,,,0.00,43.000000,,2013-04-27 02:32:00,
2013-04-26 20:42:00,42.0,19.0,-100.00,SSE,150,9.0,17.0,39,0.00,,,0.00,43.000000,,2013-04-27 02:42:00,
2013-04-26 20:52:00,42.0,19.0,-100.00,SSE,150,9.0,17.0,39,0.00,,,0.00,43.000000,,2013-04-27 02:52:00,
2013-04-26 21:22:00,38.0,20.0,-100.00,WSW,237,5.0,20.0,48,0.00,,,0.00,1.000000,,2013-04-27 03:22:00,
2013-04-26 21:33:00,38.0,20.0,-100.00,WSW,237,5.0,20.0,48,0.00,,,0.00,1.000000,,2013-04-27 03:33:00,
2013-04-26 21:43:00,38.0,20.0,-100.00,WSW,237,5.0,20.0,48,0.00,,,0.00,1.000000,,2013-04-27 03:43:00,
2013-04-26 21:53:00,38.0,20.0,-100.00,WSW,237,5.0,20.0,48,0.00,,,0.00,1.000000,,2013-04-27 03:53:00,
2013-04-26 22:23:00,36.0,21.0,-100.00,North,357,2.0,8.0,55,0.00,,,0.00,0.000000,,2013-04-27 04:23:00,
2013-04-26 22:33:00,36.0,21.0,-100.00,North,357,2.0,8.0,55,0.00,,,0.00,0.000000,,2013-04-27 04:33:00,
2013-04-26 22:43:00,36.0,21.0,-100.00,North,357,2.0,8.0,55,0.00,,,0.00,0.000000,,2013-04-27 04:43:00,
2013-04-26 22:52:00,36.0,21.0,-100.00,North,357,2.0,8.0,55,0.00,,,0.00,0.000000,,2013-04-27 04:52:00,
2013-04-26 23:22:00,34.0,21.0,-100.00,NNW,346,3.0,4.0,58,0.00,,,0.00,0.000000,,2013-04-27 05:22:00,
2013-04-26 23:32:00,34.0,21.0,-100.00,NNW,346,3.0,4.0,58,0.00,,,0.00,0.000000,,2013-04-27 05:32:00,
2013-04-26 23:42:00,34.0,21.0,-100.00,NNW,346,3.0,4.0,58,0.00,,,0.00,0.000000,,2013-04-27 05:42:00,
2013-04-26 23:52:00,34.0,21.0,-100.00,NNW,346,3.0,4.0,58,0.00,,,0.00,0.000000,,2013-04-27 05:52:00,